Regional Weather Roundup
Issued by NWS Mobile, AL

Home | Current Version | Previous Version | Text Only | Print | Product List | Glossary On
Versions: 1 2 3 4 5 6 7 8 9 10 11 12 13 14 15 16 17 18 19 20 21 22 23 24 25 26 27
000
ASUS44 KMOB 260812
RWRMOB
REGIONAL WEATHER ROUNDUP
NATIONAL WEATHER SERVICE MOBILE AL
300 AM CDT SUN MAR 26 2017

NOTE: "FAIR" INDICATES FEW OR NO CLOUDS BELOW 12,000 FEET WITH NO
      SIGNIFICANT WEATHER AND/OR OBSTRUCTIONS TO VISIBILITY.

  * THESE STATIONS ARE PART OF THE UNIVERSITY OF SOUTH ALABAMA
    MESONET AND ARE NOT UNDER NWS OR FAA QUALITY CONTROL.

ALZ061>064-260900-
COASTAL ALABAMA

CITY           SKY/WX    TMP DP  RH WIND       PRES   REMARKS
MOBILE REG APT PTCLDY    61  60  97 SE6       30.02F
BROOKLEY FIELD MOCLDY    66  65  96 SE10      30.03F
USA CAMPUS*      N/A     61  59  94 CALM      30.02
DOG RIVER*       N/A     64  64 100 SE5       30.78F


CITY           SKY/WX    TMP DP  RH WIND       PRES   REMARKS
GULF SHORES    CLEAR     62  62 100 S6        30.03F

$$

ALZ051>060-260900-
INTERIOR SOUTHWEST AND SOUTH CENTRAL ALABAMA

CITY           SKY/WX    TMP DP  RH WIND       PRES   REMARKS
GREENVILLE     CLEAR     59  56  89 SE5       30.03F
EVERGREEN      CLOUDY    59  58  96 CALM      30.04F FOG
ATMORE*          N/A    N/A N/A N/A SE12      30.05F
ANDALUSIA/OPP  CLEAR     63  60  90 VRB3      30.04F
ANDALUSIA*     NOT AVBL
FLORALA APT    CLEAR     60  58  92 SE3       30.06S FOG
FLORALA*       NOT AVBL

$$

FLZ001>006-260900-
WESTERN FLORIDA PANHANDLE

CITY           SKY/WX    TMP DP  RH WIND       PRES   REMARKS
PENSACOLA      PTCLDY    66  63  90 S8        30.02F
NAS PENSACOLA  PTCLDY    66  63  90 S10       30.02F
MILTON         NOT AVBL
WHTNG S FIELD  NOT AVBL


CITY           SKY/WX    TMP DP  RH WIND       PRES   REMARKS
JAY*           NOT AVBL
DUKE FIELD     CLEAR     62  61  97 S5        30.03F
CRESTVIEW      CLEAR     61  60  97 S3        30.05F
VALPARAISO     CLEAR     64  62  96 S1        30.04F
DESTIN         CLEAR     70  68  93 S9        30.03F

$$

MSZ076-079-260900-
INTERIOR SOUTHEAST MISSISSIPPI

CITY           SKY/WX    TMP DP  RH WIND       PRES   REMARKS
LEAKESVILLE*     N/A     59  59 100 SE7       30.00F
AGRICOLA*      NOT AVBL

$$

MARINE OBSERVATIONS

STATION/POSITION TIME  TEMP    WIND        PRES    WAVE
                       AIR SEA DIR/SP/G            HT/PER
                 (UTC) (F)     (DEG/KT/KT) (MB)    (FT/S)
PASCAGOULA       0736   70     150/ 11/ 13 1016.0F
PETIT BOIS ISLND 0736   69     160/ 10/ 13 1016.8F
GRAND BAY        0645   70     160/ 12     1017.0S
KATRINA CUT      0730          150/ 13     1016.3F
CEDAR POINT      0730   68     160/ 12     1016.3F
E DAUPHIN ISLAND 0700   68     140/ 14/ 15 1016.5F
MIDDLE BAY LIGHT 0730   68     140/ 17     1016.6F
USCG MOBILE BAY  0736   64 70  120/  9/ 10 1017.3F
STATE DOCKS      0736   64 66              1016.7F
MEAHER PARK      0730   63     100/ 10     1016.3F
WEEKS BAY        0645   62                   N/A
FORT MORGAN      0736   68     150/ 17/ 18   N/A
12 S ORANGE BCH  0750   68 69  150/ 12/ 16 1016.5F   5/ 7
PENSACOLA BAY    0736   67 69  160/  3/  6 1017.1F
64 S DAUPHIN ISL 0750   71 73  150/ 12/ 14 1016.5F   5/ 7
67 S FORT MORGAN 0730   70     170/ 10     1016.9F

$$

SELECTED LOCATIONS ACROSS THE REGION

CITY           SKY/WX    TMP DP  RH WIND       PRES   REMARKS
NEW ORLEANS    MOCLDY    68  65  90 S6        29.97F
GULFPORT       CLEAR     67  64  90 S5        29.99F
PASCAGOULA AP  FOG       55  52  89 CALM      30.01S VSB 1
PASCAGOULA*    NOT AVBL
HATTIESBURG    FOG       58  57  97 SE5       30.00F VSB 1/2
LAUREL         CLOUDY    57  55  94 S6        30.01F VSB 1/2
MERIDIAN       CLOUDY    61  60  97 S9        29.99F
JACKSON        MOCLDY    62  59  90 S9        29.94F
MONTGOMERY     CLEAR     59  55  87 SE5       30.04F
TROY           CLEAR     60  59  96 CALM      30.05F
ASHFORD*       NOT AVBL
DOTHAN         MOCLDY    62  62 100 E5        30.09F
PANAMA CITY    CLOUDY    66  62  87 SE5       30.04F

$$





USA.gov is the U.S. government's official web portal to all federal, state and local government web resources and services.